Starlink 35108

operational
NORAD ID: 65738 Int'l Des: 2025-216 Owner: SPXS Country: US Constellation: starlink
NOTLE

About Starlink 35108

Description loading...

Live Position

Loading 3D Globe...

Upcoming Passes

Altitude History

Altitude vs Time

uPlot chart will show altitude changes over time

Two-Line Element Set

1 65738U 25216E 25346.30770726 .00029788 00000-0 10141-2 0 9990
2 65738 53.1600 18.8753 0001052 79.9803 280.1317 15.30192216 13211
Epoch: Dec 12, 2025 • Age: 23 hours

Current Status

Altitude 484.8 km
Velocity 7.62 km/s
Sub-Earth Point -30.18°S, 43.7°E
Launch Date Sep 25, 2025
Age 0.2 years
Type internet

Technical Details

Classification Payload
Mass 575.00 kg
Dry Mass 530.00 kg
Total Mass 575.00 kg
Length 0.30 m
Diameter 4.10 m
Span 29.00 m
Shape Box + pan
Manufacturer SPXS
Bus Type Starlink V2MO
Phase Status In Orbit
Owner/State SPXS/US

Large Constellations

Loading constellations...